Preview of NWS' New Version of Forecast
This preview is not operational and should not be used for support decisions.

Regional Weather Roundup (RWR)

Issued by National Weather Service (NWS)

                            
000
ASUS43 KTOP 251408
RWRKS 

WEATHER ROUNDUP FOR KANSAS
NATIONAL WEATHER SERVICE GOODLAND KS
900 AM CDT SUN AUG 25 2019

NOTE:  "FAIR" INDICATES FEW OR NO CLOUDS BELOW 12,000 FEET WITH NO
SIGNIFICANT WEATHER AND/OR OBSTRUCTIONS TO VISIBILITY.

KSZ001>006-013>018-027>032-041>047-251500-
NORTHWEST KANSAS
  
CITY           SKY/WX    TMP DP  RH WIND       PRES   REMARKS
GOODLAND       FOG       62  62 100 SE12      29.91R VSB<1/4          
HAYS           CLOUDY    65  63  93 SE5       29.70R                  
HILL CITY      CLOUDY    63  62  97 E3        29.89S                  
RUSSELL        CLOUDY    65  63  93 S6        29.88R                  
$$

KSZ061>065-074>080-084>089-251500-
SOUTHWEST KANSAS
  
CITY           SKY/WX    TMP DP  RH WIND       PRES   REMARKS
DODGE CITY     CLOUDY    66  63  90 SE16      29.91R                  
ELKHART        SUNNY     71  68  92 W6        29.92R                  
GARDEN CITY    FOG       64  64 100 SE15      29.90S VSB 1/2          
GREAT BEND     CLOUDY    64  63  96 S5        29.90R                  
LIBERAL        SUNNY     73  69  87 E9        29.92R                  
PRATT          CLOUDY    65  64  95 SW5       29.92R                  
$$

KSZ066>073-081>083-090>101-251500-
SOUTHEAST KANSAS
  
CITY           SKY/WX    TMP DP  RH WIND       PRES   REMARKS
CHANUTE        LGT RAIN  68  65  90 S8        29.91S                  
COFFEYVILLE    LGT RAIN  67  66  97 E8        29.90F                  
HUTCHINSON     HVY RAIN  65  63  93 SW7       29.90R FOG              
MEDICINE LODGE   N/A     63  63 100 S10       29.91R                  
NEWTON         CLOUDY    63  63 100 SW8       29.91R                  
PARSONS        HVY RAIN  66  66 100 VRB5      29.92F FOG              
WICHITA INTL   CLOUDY    65  63  93 S12       29.87F                  
WICHITA JABRA  PTSUNNY   64  63  96 S12       29.86F                  
WICHITA MCCONL TSTM      64  63  94 SE15      29.87                   
WINFIELD       TSTM      64  32  30 S12       29.90F                  
$$

KSZ007>012-019>026-033>040-048>060-102>105-251500-
NORTHEAST KANSAS
  
CITY           SKY/WX    TMP DP  RH WIND       PRES   REMARKS
CONCORDIA      CLOUDY    67  65  93 E8        29.88R                  
EMPORIA        LGT RAIN  65  65 100 SW7       29.89R                  
LAWRENCE       LGT RAIN  69  66  90 E8        29.88F                  
MANHATTAN      CLOUDY    68  65  90 S5        29.87R                  
MARYSVILLE     CLOUDY   N/A N/A N/A SE3       29.90R                  
OLATHE IND     LGT RAIN  67  66  97 E9        29.91S FOG              
OLATHE EXE     CLOUDY    66  66 100 SE7       29.91F FOG              
SALINA         PTSUNNY   66  64  93 NE5       29.88R                  
TOPEKA BILLARD LGT RAIN  68  66  93 E7        29.87F                  
TOPEKA FORBES  LGT RAIN  69  66  90 E9        29.87S                  
$$